CAPE
0 0 0 0 0 0 0 1 1 0 2 2 2 2 3 5 5 3 1 1 0 0 0 19 2 3 0 0 0 0 0 0 0 0 0 0 0 0 0 0 0 0 0 0 0 0 0
0 0 1 1 1 0 0 0 1 4 3 2 1 2 2 2 2 1 0 0 0 0 0 9 9 13 0 0 0 0 0 0 0 0 0 0 0 0 0 0 0 0 0 0 0 0 0
7 2 3 2 1 4 8 9 7 4 3 1 1 3 3 3 3 1 0 0 0 0 0 7 29 22 2 0 0 0 0 0 0 0 0 0 0 0 0 0 0 0 0 0 0 0 0
0 0 0 0 0 0 0 3 6 5 5 2 4 4 3 1 1 1 0 0 0 0 0 17 43 18 1 0 0 0 0 0 0 0 0 0 0 0 0 0 0 0 0 0 0 0 0
1 2 3 3 3 1 0 0 1 1 0 2 3 2 2 1 0 0 0 0 0 0 28 49 9 7 0 0 0 0 0 0 0 0 0 0 0 0 0 0 0 0 0 0 0 0 0
11 11 10 4 1 1 3 0 0 0 0 2 2 0 2 1 0 0 0 0 0 15 18 28 16 1 0 0 0 0 0 0 0 0 0 0 0 1 0 0 0 0 0 0 0 0 0
2 2 1 2 3 11 11 6 0 0 1 2 3 0 1 0 0 1 0 0 0 0 0 2 0 0 0 0 0 0 0 0 0 0 0 0 1 0 0 0 0 0 0 0 0 0 0
9 9 7 8 11 10 6 12 7 0 0 2 3 0 1 0 2 0 0 2 5 19 0 0 0 0 0 0 0 0 0 0 0 0 0 0 0 0 0 0 0 0 0 0 0 0 0
13 8 6 9 11 9 13 9 7 5 0 1 0 0 0 0 0 0 0 3 2 3 0 0 0 0 1 0 0 0 0 7 0 0 0 0 0 0 0 0 0 0 0 0 0 0 0
10 4 8 14 14 16 13 11 4 6 0 0 0 0 0 0 0 0 0 0 0 2 0 0 0 1 1 0 0 0 0 0 1 1 0 0 0 0 3 0 0 0 0 0 0 0 0
6 4 8 7 10 13 13 6 7 3 0 0 0 0 0 0 0 0 0 0 2 0 0 0 0 2 0 0 0 0 0 0 0 1 0 0 0 0 0 0 0 0 0 0 0 0 0
2 4 8 10 7 7 7 7 4 0 0 0 0 0 0 0 0 0 0 0 0 0 0 0 0 7 1 0 0 0 0 0 0 0 0 0 0 0 0 0 0 0 0 0 0 0 0
1 3 10 5 7 4 1 3 1 0 0 0 0 0 0 0 0 0 0 0 0 0 0 0 0 0 0 0 0 0 0 0 0 0 0 0 0 0 0 0 1 6 7 4 1 0 0
1 8 6 5 3 1 2 0 0 0 0 0 0 0 0 0 0 0 0 0 0 0 0 0 0 0 0 0 0 0 0 1 0 0 0 0 0 0 0 1 0 16 12 2 0 0 0
1 7 4 3 0 0 0 0 0 0 0 0 0 0 0 0 0 0 0 0 0 0 0 0 0 0 0 0 0 0 0 0 0 0 0 0 0 0 0 0 1 16 23 0 6 1 1
1 5 3 2 0 0 0 0 0 0 0 0 0 0 0 0 0 0 0 0 0 0 0 0 0 0 0 0 0 0 0 0 0 0 0 0 0 0 0 0 0 8 22 14 23 6 0
4 2 1 0 0 0 0 0 0 0 0 0 0 0 0 0 0 0 0 0 0 0 0 0 0 0 0 0 0 0 0 0 0 0 0 0 0 0 0 0 0 2 1 16 14 7 4
12 0 0 0 0 0 0 0 0 0 0 0 0 0 0 0 0 0 0 0 0 0 0 0 0 0 0 0 0 0 0 0 0 0 0 0 0 0 0 0 0 0 1 2 1 0 0
8 0 0 0 0 0 0 0 0 0 0 0 0 0 0 0 0 0 0 0 0 0 0 0 0 0 0 0 0 0 0 0 0 0 0 0 0 0 0 2 0 0 0 0 0 1 0
0 13 0 0 0 0 0 0 0 0 0 0 0 0 0 0 0 0 0 0 0 0 0 0 0 0 0 0 0 0 0 0 0 0 1 6 0 0 0 0 0 0 0 0 0 0 0
0 8 3 0 0 0 0 0 0 0 0 0 0 0 0 0 0 0 0 0 0 0 0 0 0 0 0 0 0 0 0 0 0 0 0 3 0 0 0 0 0 0 0 0 0 0 0
0 3 6 2 0 0 0 0 0 4 0 0 0 0 0 0 0 0 0 0 0 0 0 0 0 0 0 0 0 0 0 0 0 0 0 0 0 0 0 0 0 0 0 0 0 0 0
2 3 10 9 7 2 0 0 0 4 0 0 0 0 0 0 0 0 0 0 0 0 0 0 0 0 0 0 0 0 0 0 0 0 1 4 0 0 0 0 0 0 0 0 0 0 0
6 2 5 15 7 13 8 0 0 8 0 0 0 0 0 0 0 0 0 0 0 0 0 0 0 0 0 0 0 0 0 0 0 0 0 1 2 0 0 0 0 0 0 0 0 0 0
1 3 3 6 10 12 9 18 4 0 8 0 0 8 3 0 0 0 0 0 0 0 0 0 0 0 0 0 0 0 0 0 0 0 0 1 5 0 0 0 0 0 0 0 0 0 0
1 1 2 2 2 10 8 8 9 9 8 0 0 10 12 9 0 0 0 0 0 0 0 0 0 0 0 0 2 0 0 0 0 0 0 0 1 0 0 0 0 0 0 0 0 0 0
7 5 3 2 2 2 2 3 4 4 6 18 5 1 6 8 1 0 0 0 0 0 0 0 0 0 0 0 0 0 0 0 0 0 0 0 0 0 0 0 0 0 0 0 0 0 0
9 7 6 8 4 6 3 2 3 5 6 7 4 6 5 6 3 1 0 2 0 1 0 0 0 0 0 0 0 0 0 2 1 0 2 1 0 0 0 0 0 0 0 0 0 0 0
14 9 6 6 6 2 2 2 5 7 5 15 15 15 28 19 4 1 0 0 0 0 1 3 1 0 0 0 0 0 10 1 0 0 0 0 0 0 0 0 0 0 0 0 0 0 0
CIN
-0 -0 -0 -0 -0 -0 -0 -0 -0 -0 -0 -0 -0 -0 -0 -0 -0 -0 -0 -0 -0 -0 -0 -0 -0 -0 -0 -0 -0 -0 -0 -0 -0 -0 -0 -0 -0 -0 -0 -0 -0 -0 -0 -0 -0 -0 -0
-0 -0 -0 -0 -0 -0 -0 -0 -0 -0 -0 -0 -0 -0 -0 -0 -0 -0 -0 -0 -0 -0 -0 -0 -0 -0 -0 -0 -0 -0 -0 -0 -0 -0 -0 -0 -0 -0 -0 -0 -0 -0 -0 -0 -0 -0 -0
-0 -0 -0 -0 -0 -0 -0 -0 -0 -0 -0 -0 -0 -0 -0 -0 -0 -0 -0 -0 -0 -0 -0 -0 -0 -0 -0 -0 -0 -0 -0 -0 -0 -0 -0 -0 -0 -0 -0 -0 -0 -0 -0 -0 -0 -0 -0
-0 -0 -0 -0 -0 -0 -0 -0 -0 -0 -0 -0 -0 -0 -0 -0 -0 -0 -0 -0 -0 -0 -0 -4 -0 -1 -0 -0 -0 -0 -0 -0 -0 -0 -0 -0 -0 -0 -0 -0 -0 -0 -0 -0 -0 -0 -0
-0 -0 -0 -0 -0 -0 -0 -0 -0 -0 -0 -0 -0 -0 -0 -0 -0 -0 -0 -0 -0 -0 -9 -3 -5 -15 -0 -0 -0 -0 -0 -0 -0 -0 -0 -0 -0 -0 -0 -0 -0 -0 -0 -0 -0 -0 -0
-0 -0 -0 -0 -0 -0 -0 -0 -0 -0 -0 -0 -0 -0 -0 -0 -0 -0 -0 -0 -0 -23 -34 -18 -7 -1 -0 -0 -0 -0 -0 -0 -0 -0 -0 -0 -0 -0 -0 -0 -0 -0 -0 -0 -0 -0 -0
-0 -0 -0 -0 -0 -0 -0 -0 -0 -0 -0 -0 -0 -0 -0 -0 -0 -0 -0 -0 -0 -0 -0 -3 -0 -0 -0 -0 -0 -0 -0 -0 -0 -0 -0 -0 -0 -0 -0 -0 -0 -0 -0 -0 -0 -0 -0
-0 -0 -0 -0 -0 -0 -0 -0 -0 -0 -0 -0 -0 -0 -0 -0 -0 -0 -0 -1 -1 -3 -0 -0 -0 -0 -0 -0 -0 -0 -0 -0 -0 -0 -0 -0 -0 -0 -0 -0 -0 -0 -0 -0 -0 -0 -0
-0 -0 -0 -0 -0 -0 -0 -0 -0 -0 -0 -0 -0 -0 -0 -0 -0 -0 -0 -0 -3 -1 -0 -0 -0 -4 -17 -0 -0 -0 -0 -2 -2 -0 -0 -0 -0 -0 -0 -0 -0 -0 -0 -0 -0 -0 -0
-0 -0 -0 -0 -0 -0 -0 -0 -0 -0 -0 -0 -0 -0 -0 -0 -0 -0 -0 -0 -0 -0 -0 -0 -0 -2 -3 -1 -0 -0 -0 -0 -0 -0 -0 -0 -0 -0 -0 -0 -0 -0 -0 -0 -0 -0 -0
-0 -0 -0 -0 -0 -0 -0 -0 -0 -0 -0 -0 -0 -0 -0 -0 -0 -0 -0 -0 -15 -0 -0 -0 -0 -1 -0 -0 -0 -0 -0 -0 -0 -4 -0 -0 -0 -0 -0 -0 -0 -0 -0 -0 -0 -0 -0
-0 -0 -0 -0 -0 -0 -0 -0 -1 -0 -0 -0 -0 -0 -0 -0 -0 -0 -0 -0 -7 -0 -0 -0 -0 -6 -9 -0 -0 -0 -0 -0 -0 -0 -0 -0 -0 -0 -0 -0 -0 -0 -0 -0 -0 -0 -0
-0 -0 -0 -0 -0 -0 -0 -0 -0 -0 -0 -0 -0 -0 -0 -0 -0 -0 -0 -0 -0 -0 -0 -0 -0 -0 -0 -0 -0 -0 -0 -0 -0 -0 -0 -0 -0 -0 -0 -0 -0 -14 -2 -0 -2 -3 -0
-0 -0 -0 -0 -0 -1 -1 -0 -0 -0 -0 -0 -0 -0 -0 -0 -0 -0 -0 -0 -0 -0 -0 -0 -0 -0 -0 -0 -0 -0 -0 -0 -0 -0 -0 -0 -0 -0 -0 -13 -0 -2 -4 -2 -0 -0 -0
-0 -0 -0 -0 -0 -0 -0 -0 -0 -0 -0 -0 -0 -0 -0 -0 -0 -0 -0 -0 -0 -0 -0 -0 -0 -0 -0 -0 -0 -0 -0 -0 -0 -0 -0 -0 -0 -0 -0 -0 -17 -2 -1 -0 -2 -2 -0
-0 -0 -0 -0 -0 -0 -0 -0 -0 -0 -0 -0 -0 -0 -0 -0 -0 -0 -0 -0 -0 -0 -0 -0 -0 -0 -0 -0 -0 -0 -0 -0 -0 -0 -0 -0 -0 -0 -0 -0 -0 -8 -3 -1 -2 -2 -0
-0 -0 -0 -0 -0 -0 -0 -0 -0 -0 -0 -0 -0 -0 -0 -0 -0 -0 -0 -0 -0 -0 -0 -0 -0 -0 -0 -0 -0 -0 -0 -0 -0 -0 -0 -0 -0 -0 -0 -0 -0 -21 -1 -3 -6 -2 -0
-0 -0 -0 -0 -0 -0 -0 -0 -0 -0 -0 -0 -0 -0 -0 -0 -0 -0 -0 -0 -0 -0 -0 -0 -0 -0 -0 -0 -0 -0 -0 -0 -0 -0 -0 -0 -0 -0 -0 -0 -0 -0 -0 -0 -0 -0 -0
-0 -0 -0 -0 -0 -0 -0 -0 -0 -0 -0 -0 -0 -0 -0 -0 -0 -0 -0 -0 -0 -0 -0 -0 -0 -0 -0 -0 -0 -0 -0 -0 -0 -0 -0 -0 -0 -0 -0 -0 -2 -0 -0 -0 -0 -0 -0
-0 -0 -0 -0 -0 -0 -0 -0 -0 -0 -0 -0 -0 -0 -0 -0 -0 -0 -0 -0 -0 -0 -0 -0 -0 -0 -0 -0 -0 -0 -0 -0 -0 -0 -14 -8 -0 -0 -0 -0 -0 -0 -0 -0 -0 -0 -0
-0 -0 -0 -0 -0 -0 -0 -0 -0 -0 -0 -0 -0 -0 -0 -0 -0 -0 -0 -0 -0 -0 -0 -0 -0 -0 -0 -0 -0 -0 -0 -0 -0 -0 -0 -13 -0 -0 -0 -0 -0 -0 -0 -0 -0 -0 -0
-0 -0 -0 -1 -0 -0 -0 -0 -0 -1 -0 -0 -0 -0 -0 -0 -0 -0 -0 -0 -0 -0 -0 -0 -0 -0 -0 -0 -0 -0 -0 -0 -0 -0 -0 -0 -0 -0 -0 -0 -0 -0 -0 -0 -0 -0 -0
-0 -0 -0 -0 -1 -0 -0 -0 -0 -1 -0 -0 -0 -0 -0 -0 -0 -0 -0 -0 -0 -0 -0 -0 -0 -1 -0 -0 -0 -0 -0 -0 -0 -0 -0 -1 -2 -0 -0 -0 -0 -0 -0 -0 -0 -0 -0
-0 -0 -0 -0 -0 -0 -1 -0 -0 -1 -0 -0 -0 -0 -0 -0 -0 -0 -0 -0 -0 -0 -0 -0 -0 -0 -0 -0 -0 -0 -0 -0 -0 -0 -0 -0 -2 -5 -0 -0 -0 -0 -0 -0 -0 -0 -0
-0 -0 -0 -0 -1 -0 -0 -2 -6 -0 -1 -0 -0 -2 -5 -0 -0 -0 -0 -0 -0 -0 -0 -0 -0 -0 -0 -0 -0 -0 -0 -0 -0 -0 -0 -0 -0 -0 -0 -0 -0 -0 -0 -0 -0 -0 -0
-0 -0 -0 -0 -2 -2 -4 -4 -5 -5 -1 -0 -0 -4 -1 -0 -0 -0 -0 -0 -0 -0 -0 -0 -0 -0 -0 -0 -0 -0 -0 -0 -0 -0 -0 -0 -0 -0 -0 -0 -0 -0 -0 -0 -0 -0 -0
-2 -0 -0 -0 -0 -0 -2 -3 -6 -8 -5 -0 -2 -14 -0 -0 -3 -1 -0 -0 -0 -0 -0 -0 -0 -0 -0 -0 -0 -0 -0 -0 -0 -0 -0 -0 -0 -0 -0 -0 -0 -0 -0 -0 -0 -0 -0
-2 -1 -0 -0 -0 -0 -0 -0 -1 -3 -4 -0 -1 -11 -1 -0 -1 -0 -1 -2 -0 -0 -0 -0 -0 -0 -0 -0 -0 -0 -0 -6 -2 -0 -3 -1 -4 -0 -0 -0 -0 -0 -0 -0 -0 -0 -0
-4 -3 -1 -1 -1 -0 -0 -1 -0 -0 -1 -2 -0 -10 -5 -0 -0 -3 -0 -0 -0 -0 -5 -2 -3 -0 -0 -0 -0 -2 -2 -3 -0 -0 -0 -0 -0 -0 -0 -0 -0 -0 -0 -0 -0 -0 -0
Wind_Speed
22 23 23 24 25 26 27 28 29 29 30 31 33 34 35 36 36 36 38 39 39 39 38 37 36 35 32 38 42 28 30 28 24 22 24 28 32 32 38 35 35 40 37 35 35 33 33
23 24 24 25 25 26 26 27 28 29 30 31 33 35 36 37 36 37 38 39 40 38 38 36 35 34 35 51 33 31 35 33 29 27 25 25 31 31 34 37 36 31 36 41 38 38 37
24 24 25 25 26 25 25 26 28 29 31 33 33 35 37 37 37 38 40 41 40 39 37 36 35 35 43 52 37 39 38 35 31 27 27 25 27 30 32 34 34 35 43 40 40 36 37
24 24 24 25 25 26 26 27 29 31 31 32 33 35 36 37 37 39 41 43 43 40 37 35 34 35 48 37 36 41 39 36 36 33 31 30 26 31 33 31 32 36 39 47 41 40 37
24 23 23 24 25 26 26 27 28 29 31 32 32 35 36 35 37 40 42 45 43 38 36 33 33 34 49 33 38 34 34 38 30 31 31 29 27 31 31 37 39 39 48 43 42 31 32
23 22 23 23 24 25 25 26 27 28 30 31 32 33 34 34 37 39 41 41 36 32 29 28 28 38 36 35 29 35 32 33 32 30 33 31 32 38 39 41 52 49 46 43 42 35 34
25 24 23 24 24 23 23 24 24 25 28 30 31 31 33 33 36 37 34 31 29 27 24 30 32 35 38 32 33 30 28 28 30 34 41 34 42 50 47 44 40 37 44 45 38 35 35
24 22 21 21 20 20 22 22 22 24 25 29 30 30 31 31 33 30 28 28 26 26 28 28 31 36 38 37 39 34 26 30 34 43 37 38 53 50 39 41 44 47 42 40 37 36 39
25 21 20 17 17 19 19 20 21 21 23 27 29 28 30 29 26 28 25 26 22 25 22 23 24 24 27 25 33 33 27 29 34 39 42 48 49 40 41 42 44 49 52 47 42 35 36
25 21 15 15 16 17 17 16 18 18 21 25 26 27 28 28 23 25 23 25 12 17 20 24 23 22 28 26 28 29 26 30 31 37 37 44 52 39 44 49 45 53 43 44 44 44 55
28 23 17 15 15 15 15 15 16 17 19 23 24 25 25 24 21 21 19 13 14 17 20 25 25 20 22 18 27 23 25 27 37 33 32 40 40 48 49 47 40 54 38 38 39 45 46
27 26 20 19 17 15 15 15 15 16 17 20 22 22 22 22 19 16 19 25 18 21 22 25 25 26 23 21 20 22 22 21 23 37 39 41 29 32 48 45 36 33 34 35 37 39 53
23 24 24 26 24 19 16 16 15 16 17 19 20 21 20 19 20 14 13 16 19 23 23 25 26 25 24 23 19 18 17 21 31 35 43 39 44 40 33 39 38 38 36 44 46 47 58
21 23 25 26 26 22 19 18 17 16 16 18 18 20 19 20 17 15 16 18 25 17 22 25 25 25 24 25 21 18 17 22 21 28 33 39 43 35 33 36 39 42 41 45 51 55 57
22 24 25 24 24 22 20 18 17 17 17 18 19 19 19 18 18 18 20 25 19 15 14 22 26 24 25 26 22 19 17 18 20 21 33 36 38 27 27 32 34 35 52 41 46 43 45
21 24 24 24 23 21 20 18 18 17 17 19 19 18 18 18 17 20 22 22 19 16 14 16 24 24 26 26 23 21 19 19 20 20 20 29 42 30 30 29 32 43 31 42 49 57 62
19 22 23 22 22 21 19 18 18 17 17 18 19 19 16 18 18 20 22 19 17 15 16 16 18 21 24 25 24 21 20 19 22 21 21 23 29 37 30 31 34 34 45 45 39 45 54
20 19 22 21 20 20 19 18 17 17 17 19 19 19 17 18 18 19 18 16 14 15 16 16 15 16 21 24 23 21 20 21 20 20 24 22 26 34 34 30 31 27 32 34 49 45 34
20 17 19 21 20 19 18 17 16 16 18 18 20 17 17 18 19 18 16 15 14 14 15 15 16 16 16 18 22 21 21 22 20 26 23 22 26 34 31 27 24 30 28 29 34 37 50
15 17 16 18 21 19 18 17 16 15 17 18 19 20 18 19 18 18 18 15 15 12 12 13 12 15 16 16 16 16 21 20 27 27 24 22 25 29 35 35 32 37 38 34 33 42 46
12 16 15 16 17 19 18 16 15 14 15 17 19 19 17 18 17 15 15 13 14 15 12 11 12 12 15 14 13 12 12 13 25 21 20 21 29 30 33 36 36 39 42 41 44 42 47
10 16 14 14 14 16 18 16 14 13 14 16 17 17 16 15 14 14 13 13 12 13 12 11 9 10 10 9 8 3 2 6 8 20 21 23 30 30 37 37 38 43 44 45 45 47 49
11 9 14 15 14 13 15 17 14 11 12 14 14 14 15 15 16 15 12 12 12 14 11 8 8 10 6 4 6 2 4 5 5 3 3 22 26 29 38 34 37 45 46 44 44 43 44
11 8 10 13 13 15 13 14 15 10 10 12 13 14 15 15 13 13 11 9 7 6 7 6 5 6 8 12 8 7 6 6 7 11 9 3 15 24 32 32 43 39 33 35 40 44 43
12 10 7 9 12 11 12 13 13 13 8 9 10 11 11 14 11 11 8 7 8 8 7 9 7 5 6 11 14 16 14 13 12 2 2 7 4 20 28 30 38 41 33 31 32 42 41
11 10 8 8 9 9 9 11 12 12 12 10 8 7 9 12 11 9 12 9 10 11 11 12 12 11 11 12 12 15 18 13 13 17 19 9 1 5 18 27 31 29 20 20 25 45 30
11 10 9 10 9 9 10 10 11 11 11 11 11 7 9 9 9 8 10 11 10 11 11 15 16 15 12 14 14 12 16 9 12 18 20 17 14 4 7 19 33 25 21 21 28 34 31
10 9 9 10 10 10 10 10 10 10 9 9 12 7 7 10 10 9 8 8 8 8 9 13 19 12 13 14 14 14 13 11 11 20 22 20 18 17 15 15 36 16 16 20 27 37 37
10 8 9 10 10 11 11 11 11 10 9 10 13 11 9 9 11 13 9 8 8 9 8 8 8 11 12 13 12 14 13 14 9 11 22 15 11 15 8 11 10 13 15 19 29 46 49
Wind_Direction
3 4 359 356 357 357 357 359 359 359 358 354 348 342 336 331 327 323 318 313 307 301 296 292 292 293 286 269 262 279 284 288 282 282 273 261 255 255 255 260 259 259 262 264 265 267 267
12 8 6 8 13 14 11 10 9 6 3 360 352 345 339 333 328 324 320 315 309 303 297 292 290 289 278 263 275 276 277 281 275 274 272 265 260 257 262 258 258 264 263 263 265 265 267
11 11 11 12 14 16 17 13 10 6 2 359 357 349 341 335 331 326 320 317 311 305 298 293 288 284 272 263 276 276 274 268 270 271 268 270 262 258 260 261 262 263 262 265 262 264 266
7 10 12 13 15 14 14 13 9 5 4 1 360 352 347 343 338 330 323 316 309 303 299 293 289 283 269 276 278 272 268 269 264 264 265 267 267 260 257 262 264 260 261 258 262 260 263
8 14 15 11 12 12 13 12 10 9 6 3 2 357 352 350 344 335 328 318 310 300 298 295 288 280 271 280 270 273 267 260 265 258 261 263 262 257 256 252 256 257 256 259 260 264 261
13 17 17 14 11 10 12 12 11 11 9 6 4 0 357 355 348 343 336 326 318 307 305 296 288 276 273 274 274 278 269 262 254 254 254 253 253 250 249 244 247 253 255 258 259 261 259
3 13 15 13 11 11 12 13 14 13 12 8 6 4 2 359 354 352 352 349 334 314 312 290 283 273 274 279 279 274 272 263 252 246 245 248 246 243 244 247 255 260 256 258 261 263 265
7 19 20 19 19 16 12 13 15 14 13 10 8 8 6 5 2 6 7 2 351 333 305 304 290 277 275 275 268 266 270 255 247 244 243 246 245 246 251 250 252 254 257 258 264 266 265
8 20 23 26 23 18 15 15 15 17 16 12 11 12 11 11 18 22 26 15 14 341 319 314 308 297 292 280 262 262 265 260 252 245 240 241 248 249 247 249 249 251 252 256 261 270 270
8 21 32 29 25 20 19 21 20 22 19 15 15 16 16 17 29 26 29 19 54 326 329 328 318 313 314 283 267 270 264 258 255 248 244 247 248 253 246 247 247 251 257 259 262 263 261
358 15 26 28 24 22 24 26 26 26 24 19 20 21 22 29 30 36 37 48 64 51 322 324 331 336 331 302 281 267 270 260 250 252 248 246 251 244 248 249 250 253 259 260 261 262 264
3 10 21 21 23 25 29 32 32 31 29 25 24 25 26 35 40 49 24 5 50 11 336 338 333 320 316 312 305 285 268 265 263 253 255 251 261 258 249 249 252 256 260 260 263 261 258
16 17 15 13 16 26 35 38 39 37 34 29 28 28 37 40 39 42 50 57 43 17 359 337 332 325 327 316 314 298 279 266 254 249 248 256 254 258 261 249 249 246 250 252 254 253 256
19 19 18 17 18 25 35 39 41 41 38 32 32 36 46 45 45 51 55 60 42 50 19 352 335 326 327 328 317 311 291 268 279 259 255 251 250 252 254 253 250 244 243 250 253 255 258
16 15 16 21 24 28 34 39 42 44 41 35 35 43 47 46 47 53 56 47 56 60 46 11 347 337 324 323 312 302 295 286 284 283 254 256 252 268 266 260 253 249 245 250 261 263 263
11 11 17 20 26 30 34 38 41 44 43 38 39 45 48 44 52 53 57 56 62 67 60 53 6 353 328 320 316 307 296 298 289 292 283 266 255 265 268 272 261 253 260 251 253 256 257
13 11 14 22 24 29 33 37 41 43 45 43 41 42 51 42 54 54 50 59 65 68 63 65 52 24 354 332 320 309 304 299 303 293 290 280 265 259 269 265 262 262 254 255 263 257 259
5 12 13 20 25 26 32 34 39 43 45 44 43 40 44 46 49 54 52 59 63 62 66 65 69 63 33 360 337 317 305 305 316 308 284 287 273 264 264 269 270 269 266 264 254 257 268
356 10 14 14 22 26 28 31 35 44 44 46 36 43 49 50 44 49 53 56 64 59 58 64 63 61 64 51 4 347 320 315 311 307 295 292 277 270 265 266 269 265 272 271 270 265 257
356 3 12 15 15 23 27 32 37 45 49 46 38 33 44 50 55 51 47 53 48 63 63 63 69 64 57 60 63 35 349 334 312 306 300 294 282 274 267 269 274 267 267 270 269 264 262
352 357 8 13 17 17 24 31 37 45 53 47 39 36 43 36 41 46 44 49 46 42 62 62 63 63 47 47 40 63 55 356 327 320 315 300 283 283 279 278 277 274 271 268 264 267 266
343 351 2 8 13 16 18 26 35 43 47 42 35 36 39 36 38 40 44 45 43 43 45 44 53 53 50 29 32 341 339 47 38 342 326 311 290 291 280 281 280 276 274 271 269 267 268
332 346 356 0 6 14 15 18 27 45 41 36 43 46 36 34 35 33 37 42 45 34 37 52 38 19 359 335 6 268 232 233 233 266 319 321 307 295 282 291 286 275 273 274 272 273 272
324 333 346 354 358 6 13 16 18 36 37 32 40 43 32 17 26 27 34 31 18 18 1 339 346 353 7 6 342 329 313 258 249 238 220 267 329 312 297 298 280 284 291 286 280 279 279
316 327 335 342 349 360 5 10 12 15 34 23 34 34 32 12 13 8 7 9 10 10 359 355 329 329 9 6 360 356 357 357 360 6 11 189 196 319 303 298 292 292 296 289 288 283 283
307 321 332 338 339 347 355 357 360 6 8 9 13 27 28 10 3 5 8 9 3 4 3 16 19 22 11 19 15 0 349 356 357 346 350 17 159 340 328 310 300 307 325 326 316 286 307
301 312 323 333 338 343 343 344 348 351 353 356 357 14 10 356 336 334 340 353 10 9 360 357 2 9 18 4 359 359 353 1 346 332 333 342 345 299 230 303 267 316 320 329 298 298 313
292 306 317 325 328 336 342 342 345 347 347 345 343 345 340 337 312 292 310 318 343 350 338 358 354 2 5 10 12 9 4 3 344 319 322 328 333 334 338 320 293 348 337 311 314 305 305
286 299 312 319 323 329 334 336 340 345 345 344 337 344 336 321 333 345 322 305 276 262 297 332 331 360 10 5 11 9 357 348 322 275 311 308 307 322 320 329 328 325 318 312 280 270 276